[[{"header":{"parameterUnit":"m.s-1","parameterCategory":1,"la1":30.2991,"la2":30.254,"lo1":-89.0895,"lo2":-89.0444,"dy":0.0017,"dx":0.0017,"nx":28,"ny":28,"refTime":"2026-01-03T09:00:00:Z","depth":0,"parameterNumber":2,"parameterNumberName":"U-component_of_WINDS"},"data":[0,0,0,0,0,0,0,0,0,0,0,0,0,0,0,0,0,0,0,0,0,0,0,0,0,0,0,0,0,0,0,0,0,0,0,0,0,0,0,0,0,0,0,0,0,0,0,0,0,0,0,0,0,0,0,0,0,0,1.7707,1.7708,0,1.7786,1.7787,1.7788,1.7786,1.7785,1.7784,1.7783,1.7868,1.7871,1.7874,0,0,0,0,0,0,0,0,0,0,0,0,0,1.7558,1.7561,1.7707,1.7708,1.7709,1.7786,1.7787,1.7788,1.7786,1.7785,1.7783,1.7782,1.7867,1.7871,1.7875,0,0,0,0,0,0,0,0,0,0,0,0,0,1.7628,1.7561,1.7707,1.7717,1.7719,1.7786,1.7787,1.7789,1.7786,1.7785,1.7783,1.7782,1.7866,1.787,1.7875,1.7939,0,0,1.789,1.7892,0,0,0,0,0,0,0,0,1.7624,1.7634,1.7715,1.7717,1.7719,1.7774,1.7766,1.7839,1.7787,1.7761,1.7783,1.7781,1.7838,1.7846,1.7864,1.7943,1.7946,1.7891,1.7894,1.7896,1.7897,0,0,0,0,0,0,0,1.762,1.7631,1.7739,1.7716,1.7718,1.7719,1.7727,1.778,1.7808,1.7763,1.7763,1.7772,1.7839,1.7859,1.7866,1.7947,1.7891,1.7895,1.7898,1.79,1.8082,1.8084,0,0,0,0,0,0,1.7612,1.7627,1.7736,1.7741,1.7666,1.7723,1.7732,1.7758,1.7807,1.7813,1.7774,1.7772,1.7852,1.786,1.7869,1.7947,1.7896,1.79,1.7903,1.8081,1.8083,1.8085,0,0,0,0,0,0,1.7609,1.7622,1.7733,1.7684,1.7698,1.7727,1.7757,1.7761,1.7781,1.7815,1.7821,1.7789,1.7851,1.7862,1.7921,1.795,1.7903,1.7907,1.8078,1.8081,1.8084,1.8102,0,0,0,0,0,0,1.7604,1.7621,1.7644,1.7684,1.77,1.7782,1.7758,1.7763,1.7789,1.7787,1.7831,1.7837,1.785,1.7914,1.7926,1.7956,1.7911,1.8076,1.808,1.8083,1.8099,1.8105,1.8111,0,0,0,0,0,1.7599,1.7647,1.7645,1.7658,1.773,1.7784,1.7793,1.7807,1.7791,1.7815,1.7838,1.7835,1.7944,1.792,1.7934,1.7965,1.8074,1.8079,1.8083,1.8097,1.8104,1.811,0,0,0,0,0,0,1.7611,1.7652,1.7651,1.7713,1.7745,1.7783,1.7815,1.7815,1.7853,1.785,1.7866,1.7876,1.7935,1.7956,1.7928,1.8029,1.8007,1.8015,1.8013,1.8021,1.8026,1.802,1.7915,0,0,0,0,0,1.762,1.7659,1.7694,1.7745,1.7761,1.7785,1.7809,1.7817,1.7851,1.7865,1.7891,1.7926,1.7968,1.7996,1.8036,1.8102,1.8112,1.8131,1.8136,1.8141,1.8147,1.8184,1.8193,1.8099,1.8099,1.8099,0,0,1.7641,1.7668,1.7692,1.7748,1.7774,1.7815,1.7797,1.7841,1.7872,1.7872,1.7929,1.795,1.799,1.8052,1.8081,1.8071,1.8175,1.8146,1.8149,1.8153,1.8189,1.8198,1.8206,1.8102,1.8101,1.8101,0,0,1.7699,1.7723,1.7769,1.7795,1.7833,1.7849,1.786,1.7899,1.7912,1.7969,1.797,1.8008,1.808,1.8108,1.8132,1.8201,1.82,1.8214,1.8244,1.828,1.8287,1.8294,1.8319,1.8328,1.822,1.822,1.822,0,1.772,1.7781,1.7793,1.7837,1.7862,1.7863,1.7909,1.7934,1.7985,1.8003,1.7991,1.8081,1.8108,1.8177,1.8194,1.8213,1.8227,1.8209,1.8285,1.8291,1.8298,1.8322,1.8331,1.8221,1.8221,1.8221,1.8221,0,1.7805,1.7847,1.7879,1.7926,1.7955,1.8001,1.8021,1.8049,1.8054,1.8071,1.813,1.8162,1.8209,1.8226,1.8232,1.8297,1.8289,1.8281,1.8259,1.8308,1.8331,1.834,1.8223,1.8223,1.8222,1.8222,0,0,1.7873,1.7925,1.7937,1.7959,1.8001,1.8035,1.8081,1.8126,1.815,1.8185,1.8224,1.8285,1.8277,1.8304,1.8313,1.8345,1.8398,1.8333,1.8334,1.8344,1.8472,1.8478,1.8489,1.8397,1.8399,1.8401,1.8469,0,1.7936,1.8015,1.8028,1.8099,1.8138,1.814,1.818,1.8211,1.8229,1.8266,1.8286,1.8328,1.8315,1.8331,1.8362,1.8385,1.8424,1.838,1.8436,1.8438,1.8426,1.8501,1.8508,1.857,1.8478,1.8479,1.848,0,1.802,1.8055,1.813,1.8167,1.8184,1.822,1.8262,1.8297,1.8333,1.8344,1.8374,1.8379,1.8428,1.8404,1.8472,1.8442,1.8466,1.8481,1.8483,1.849,1.8462,1.8509,1.859,1.86,1.8495,1.8493,1.8492,0,1.8062,1.8129,1.8182,1.8201,1.8246,1.8271,1.8291,1.8325,1.8351,1.8389,1.8406,1.8449,1.8473,1.8507,1.8524,1.8505,1.8591,1.8569,1.8603,1.8602,1.8621,1.862,1.8707,1.8636,1.8635,1.8635,1.8635,0,1.8131,1.8177,1.8202,1.8235,1.8286,1.8301,1.8352,1.8371,1.8402,1.8439,1.8444,1.8479,1.85,1.8538,1.8553,1.8607,1.8618,1.8629,1.8632,1.8629,1.8627,1.8645,1.8641,1.8638,1.8637,1.8637,1.8636,0,1.8187,1.8206,1.8264,1.8301,1.8312,1.8348,1.8381,1.8414,1.8431,1.8478,1.8491,1.8518,1.8564,1.8584,1.8642,1.8651,1.8714,1.8714,1.8701,1.8702,1.8735,1.8732,1.8837,1.8852,1.877,1.8771,1.8772,0,1.823,1.8265,1.8306,1.8331,1.8352,1.8392,1.8418,1.8434,1.8462,1.8505,1.8533,1.8578,1.8616,1.869,1.8716,1.8759,1.8761,1.8795,1.8768,1.8763,1.8762,1.876,1.8764,1.88,1.8801,1.8801,1.8802,0,1.8305,1.8312,1.8349,1.839,1.8422,1.8455,1.8488,1.8508,1.8529,1.856,1.8607,1.8636,1.8693,1.8739,1.8785,1.8807,1.8809,1.881,1.882,1.8817,1.8809,1.8814,1.8715,1.8808,1.8807,1.8807,1.8806,1.8806,1.8356,1.8387,1.8421,1.8463,1.8489,1.8519,1.8551,1.8572,1.8611,1.8658,1.8666,1.8715,1.8751,1.8812,1.8836,1.8876,1.8868,1.8882,1.8886,1.889,1.8892,1.8802,1.8884,1.8884,1.8884,1.8884,1.8883,0,1.8431,1.8452,1.8491,1.8536,1.8569,1.8566,1.8602,1.863,1.8674,1.8706,1.8743,1.8796,1.8841,1.887,1.8915,1.8942,1.8944,1.8953,1.8951,1.8957,1.8896,1.8883,1.8951,1.8951,1.8951,1.8951,1.8951,1.8951,1.8474,1.8526,1.8538,1.8604,1.8626,1.8674,1.8695,1.8723,1.8749,1.8808,1.8845,1.8863,1.8895,1.8942,1.8983,1.8991,1.9008,1.9018,1.9025,1.8968,1.8961,1.8954,1.8942,1.9021,1.9021,1.9082,1.9083,1.9083]},{"header":{"parameterUnit":"m.s-1","parameterCategory":1,"la1":30.2991,"la2":30.254,"lo1":-89.0895,"lo2":-89.0444,"dy":0.0017,"dx":0.0017,"nx":28,"ny":28,"refTime":"2026-01-03T09:00:00:Z","depth":0,"parameterNumber":3,"parameterNumberName":"V-component_of_WINDS"},"data":[0,0,0,0,0,0,0,0,0,0,0,0,0,0,0,0,0,0,0,0,0,0,0,0,0,0,0,0,0,0,0,0,0,0,0,0,0,0,0,0,0,0,0,0,0,0,0,0,0,0,0,0,0,0,0,0,0,0,5.1774,5.1776,0,5.1881,5.1882,5.1883,5.1875,5.1873,5.1872,5.187,5.1977,5.1982,5.1986,0,0,0,0,0,0,0,0,0,0,0,0,0,5.1563,5.1567,5.1774,5.1776,5.1777,5.1881,5.1882,5.1883,5.1875,5.1873,5.1871,5.1869,5.1976,5.1981,5.1986,0,0,0,0,0,0,0,0,0,0,0,0,0,5.1661,5.1568,5.1774,5.1785,5.1787,5.188,5.1882,5.1884,5.1876,5.1873,5.1871,5.1869,5.1974,5.1981,5.1987,5.2075,0,0,5.2007,5.201,0,0,0,0,0,0,0,0,5.1655,5.1668,5.1782,5.1785,5.1787,5.1862,5.1847,5.1948,5.1876,5.1842,5.187,5.1867,5.1941,5.195,5.1975,5.208,5.2084,5.2007,5.2011,5.2014,5.2016,0,0,0,0,0,0,0,5.1648,5.1664,5.1816,5.1784,5.1787,5.1785,5.1796,5.1866,5.1903,5.1845,5.1844,5.1857,5.1942,5.1969,5.1977,5.2086,5.2007,5.2013,5.2017,5.202,5.227,5.2272,0,0,0,0,0,0,5.1639,5.1658,5.1813,5.182,5.1714,5.179,5.1803,5.184,5.1903,5.191,5.1859,5.1856,5.1959,5.197,5.1981,5.209,5.2014,5.202,5.2024,5.2267,5.227,5.2273,0,0,0,0,0,0,5.1635,5.1653,5.1809,5.1739,5.1758,5.1797,5.1839,5.1844,5.1871,5.1914,5.192,5.188,5.1957,5.1972,5.2052,5.2093,5.2023,5.2029,5.2264,5.2268,5.2272,5.2307,0,0,0,0,0,0,5.1629,5.1651,5.1686,5.174,5.1762,5.1878,5.1841,5.1848,5.1882,5.188,5.1935,5.1942,5.1957,5.2042,5.2059,5.2101,5.2034,5.226,5.2266,5.2271,5.2302,5.2312,5.232,0,0,0,0,0,5.1621,5.169,5.1687,5.1706,5.1806,5.1881,5.1894,5.191,5.1886,5.192,5.1948,5.194,5.2086,5.2051,5.2069,5.2114,5.2258,5.2264,5.227,5.2298,5.231,5.2319,0,0,0,0,0,0,5.1639,5.1698,5.1695,5.1784,5.1828,5.1879,5.1923,5.1921,5.1972,5.1968,5.1985,5.1997,5.2078,5.2104,5.2064,5.2203,5.2169,5.2179,5.2184,5.2195,5.2204,5.2196,5.204,0,0,0,0,0,5.1654,5.171,5.1758,5.1832,5.1854,5.1885,5.1918,5.1927,5.1973,5.1991,5.2024,5.2068,5.2124,5.2161,5.2214,5.2305,5.2318,5.2345,5.2354,5.2361,5.237,5.2421,5.2434,5.2294,5.2294,5.2294,0,0,5.1684,5.1723,5.1757,5.1836,5.1871,5.193,5.19,5.1963,5.2006,5.2,5.2079,5.2104,5.2155,5.2241,5.2281,5.2265,5.2411,5.2369,5.2374,5.2379,5.2429,5.2442,5.2454,5.2298,5.2297,5.2296,0,0,5.1769,5.1804,5.187,5.1906,5.1959,5.198,5.1996,5.2048,5.2065,5.2144,5.2141,5.2193,5.2288,5.2325,5.2356,5.2456,5.2451,5.2473,5.2519,5.2569,5.258,5.259,5.2627,5.264,5.2481,5.2481,5.2481,0,5.18,5.1888,5.1904,5.1968,5.2003,5.2001,5.2068,5.2102,5.217,5.2194,5.2175,5.2296,5.233,5.2426,5.245,5.2475,5.2494,5.2467,5.2577,5.2587,5.2597,5.2633,5.2646,5.2484,5.2483,5.2483,5.2483,0,5.1924,5.1986,5.2032,5.21,5.214,5.2205,5.2231,5.2269,5.2275,5.2297,5.2378,5.2418,5.2481,5.2503,5.2508,5.26,5.2589,5.2573,5.254,5.2613,5.2647,5.266,5.2487,5.2486,5.2485,5.2485,0,0,5.2025,5.2101,5.2118,5.2149,5.2208,5.2255,5.232,5.2382,5.2416,5.2462,5.2518,5.2599,5.2586,5.2621,5.263,5.2674,5.2753,5.2653,5.2655,5.2672,5.2858,5.2871,5.2886,5.2749,5.2752,5.2754,5.2854,0,5.2118,5.2234,5.2251,5.2354,5.2411,5.241,5.2466,5.2509,5.2531,5.2583,5.2607,5.2665,5.2642,5.2663,5.2706,5.2734,5.279,5.2726,5.2802,5.2804,5.2791,5.2904,5.2917,5.301,5.2867,5.287,5.2871,0,5.2242,5.2294,5.2403,5.2455,5.248,5.2531,5.259,5.2638,5.2686,5.27,5.274,5.2744,5.2811,5.2773,5.2867,5.2823,5.2855,5.2873,5.2877,5.2886,5.2844,5.2918,5.304,5.3055,5.2892,5.289,5.2889,0,5.2307,5.2403,5.2481,5.2508,5.257,5.2606,5.2634,5.268,5.2716,5.2767,5.2791,5.2849,5.2881,5.2925,5.2945,5.2915,5.3038,5.3001,5.3052,5.3051,5.3079,5.3077,5.321,5.3096,5.3096,5.3095,5.3095,0,5.241,5.2477,5.2512,5.256,5.2635,5.2653,5.2727,5.2753,5.2794,5.2847,5.2848,5.2898,5.292,5.2974,5.2989,5.3065,5.3079,5.3092,5.3096,5.3093,5.3092,5.3115,5.311,5.3099,5.3098,5.3098,5.3097,0,5.2496,5.2521,5.2607,5.266,5.2674,5.2728,5.2773,5.282,5.2841,5.2909,5.2926,5.296,5.3023,5.3046,5.3122,5.3133,5.3222,5.3219,5.3206,5.3207,5.3257,5.3253,5.3411,5.3434,5.3303,5.3304,5.3305,0,5.2561,5.2613,5.2671,5.2708,5.2737,5.2795,5.2833,5.2852,5.2891,5.295,5.299,5.3053,5.3105,5.3205,5.3237,5.3295,5.3295,5.3347,5.3304,5.33,5.3298,5.3296,5.3302,5.3355,5.3356,5.3357,5.3358,0,5.2674,5.2685,5.2739,5.2799,5.2845,5.2892,5.2939,5.2968,5.2994,5.3038,5.3103,5.3143,5.3222,5.3284,5.3345,5.3373,5.3371,5.3371,5.3386,5.3385,5.3377,5.3384,5.323,5.3368,5.3367,5.3366,5.3366,5.3365,5.2753,5.28,5.2849,5.291,5.2947,5.2991,5.3038,5.3066,5.3121,5.3187,5.3195,5.3265,5.3312,5.3393,5.3424,5.3479,5.3465,5.3486,5.3492,5.3497,5.3502,5.3366,5.3489,5.3489,5.3489,5.3489,5.3488,0,5.2868,5.29,5.2956,5.3022,5.307,5.3064,5.3115,5.3156,5.3218,5.3262,5.3313,5.3388,5.3449,5.3486,5.3547,5.3584,5.3585,5.36,5.3598,5.3605,5.351,5.3492,5.3599,5.3598,5.3598,5.3598,5.3598,5.3598,5.2934,5.3013,5.303,5.3128,5.3158,5.3228,5.3258,5.3298,5.3334,5.3419,5.347,5.3493,5.3535,5.3599,5.3655,5.3664,5.3687,5.3704,5.3712,5.3623,5.3612,5.3601,5.3584,5.3708,5.3709,5.3803,5.3804,5.3805]}]]